This demonstration page uses our WeatherBlox Daily Observations layout. Learn more.

36.17497, -115.13722

Hourly Observations for July 8, 2016

Temp ( °F °C ) Dew Point ( °F °C ) Humidity (%) Winds ( mph kmh ) Pressure ( in mb ) Visibility ( mi km ) Precip ( " mm )
12:53 am 00:53 Clear 89 31.7 28 -2.2 11 11 SW 13 20 29.65 1004 10 16.09344 0 0
1:53 am 01:53 Clear 86 30 31 -0.6 14 14 S 8 13 29.68 1005 10 16.09344 0 0
2:53 am 02:53 Clear 84 28.9 34 1.1 17 17 ENE 3 6 29.71 1006 10 16.09344 0 0
3:53 am 03:53 Clear 81 27.2 35 1.7 19 19 E 6 9 29.71 1006 10 16.09344 0 0
4:53 am 04:53 Clear 81 27.2 37 2.8 21 21 NE 3 6 29.77 1008 10 16.09344 0 0
5:53 am 05:53 Sunny 79 26.1 39 3.9 24 24 NNE 5 7 29.8 1009 10 16.09344 0 0
6:53 am 06:53 Sunny 82 27.8 39 3.9 22 22 ESE 7 11 29.77 1008 10 16.09344 0 0
7:53 am 07:53 Sunny 85 29.4 39 3.9 20 20 SE 10 17 29.8 1009 10 16.09344 0 0
8:53 am 08:53 Sunny 90 32.2 38 3.3 16 16 SSE 12 19 29.77 1008 10 16.09344 0 0
9:53 am 09:53 Sunny 94 34.4 35 1.7 13 13 S 14 22 29.77 1008 10 16.09344 0 0
10:53 am 10:53 Sunny 98 36.7 31 -0.6 9 9 SW 15 24 29.74 1007 10 16.09344 0 0
11:53 am 11:53 Sunny 99 37.2 29 -1.7 8 8 SSW 14 22 29.71 1006 10 16.09344 0 0
12:53 pm 12:53 Sunny 101 38.3 30 -1.1 8 8 SSE 20 31 29.68 1005 10 16.09344 0 0
1:53 pm 13:53 Sunny 102 38.9 31 -0.6 8 8 S 15 24 29.68 1005 10 16.09344 0 0
2:53 pm 14:53 Sunny 104 40 28 -2.2 7 7 SW 15 24 29.62 1003 10 16.09344 0 0
3:53 pm 15:53 Sunny 105 40.6 27 -2.8 6 6 SW 16 26 29.59 1002 10 16.09344 0 0
4:53 pm 16:53 Sunny 104 40 28 -2.2 7 7 SW 13 20 29.59 1002 10 16.09344 0 0
5:53 pm 17:53 Sunny 102 38.9 28 -2.2 7 7 SW 16 26 29.56 1001 10 16.09344 0 0
6:53 pm 18:53 Sunny 101 38.3 25 -3.9 7 7 WSW 12 19 29.62 1003 10 16.09344 0 0
7:53 pm 19:53 Sunny 99 37.2 27 -2.8 8 8 WSW 12 19 29.62 1003 10 16.09344 0 0
8:53 pm 20:53 Clear 97 36.1 27 -2.8 8 8 WSW 8 13 29.62 1003 10 16.09344 0 0
9:53 pm 21:53 Clear 95 35 27 -2.8 9 9 SW 9 15 29.68 1005 10 16.09344 0 0
10:53 pm 22:53 Clear 93 33.9 29 -1.7 10 10 SSW 9 15 29.68 1005 10 16.09344 0 0
11:53 pm 23:53 Clear 92 33.3 30 -1.1 11 11 SSW 7 11 29.68 1005 10 16.09344 0 0

Powered by AerisWeather